Weather Roundup
Issued by NWS Chicago, IL

Home | Current Version | Previous Version | Text Only | Print | Product List | Glossary Off
Versions: 1 2 3 4 5 6 7 8 9 10 11 12 13 14 15 16 17 18 19 20 21 22 23 24 25 26 27 28 29 30 31 32 33 34 35 36 37 38 39 40 41 42 43 44 45 46 47 48 49 50

000
NZUS59 KLOT 221103
HRRLOT

CHICAGO AREA WEATHER ROUNDUP
NATIONAL WEATHER SERVICE CHICAGO/ROMEOVILLE IL
600 AM CDT TUE AUG 22 2017

NOTE: "FAIR" INDICATES FEW OR NO CLOUDS BELOW 12,000 FEET WITH NO
SIGNIFICANT WEATHER AND/OR OBSTRUCTIONS TO VISIBILITY.

* THESE STATIONS ARE NOT UNDER NWS QUALITY CONTROL. THEY ALSO MAY NOT
  REPORT WEATHER SUCH AS PRECIPITATION OR FOG.

ILZ005-006-012>014-019>023-221200-
NORTHEAST ILLINOIS

CITY           SKY/WX    TMP DP  RH WIND       PRES   REMARKS
OHARE          CLOUDY    72  67  84 W8        29.86S
MIDWAY         LGT RAIN  71  69  93 SW13      29.88R
AURORA         CLOUDY    70  68  93 SW8       29.89R
LANSING*       LGT RAIN  69  66  88 SW8       29.90R
JOLIET*        CLOUDY    71  70  96 SW5       29.90R
WAUKEGAN       CLOUDY    71  65  81 W7        29.83S
DUPAGE AIRPORT MOCLDY    70  69  97 SW6       29.87S
WHEELING       CLOUDY    72  67  84 W6        29.86F
MORRIS*        CLOUDY    69  67  94 W7        29.91R
NORTHERLY ISL    N/A     72  68  87 W1          N/A
$$

WIZ051-052-058>065-066-070>072-221200-
SOUTHEAST WISCONSIN

CITY           SKY/WX    TMP DP  RH WIND       PRES   REMARKS
MILWAUKEE      CLOUDY    72  64  76 W9        29.81S
KENOSHA*       CLOUDY    71  64  78 W12       29.84R
RACINE*        CLOUDY    72  65  78 W13       29.84R
WAUKESHA       CLEAR     66  63  88 SW7       29.84S
$$

INZ001>003-010>013-019-020-221200-
NORTHWEST INDIANA

CITY           SKY/WX    TMP DP  RH WIND       PRES   REMARKS
GARY*          LGT RAIN  72  68  88 SW9       29.89S
MICHIGAN CITY* NOT AVBL
RENSSELAER*    NOT AVBL
VALPARAISO     LGT RAIN  71  70  96 SW9       29.91S FOG
$$

LMZ740>746-221200-
SOUTHERN LAKE MICHIGAN

STATION/POSITION TIME  SKY/WX   TEMP WIND        PRES    VSBY
                                AIR  DIR/SP/G
                 (UTC)          (F)  (DEG/KT/KT) (MB)    (MI)
HARRISON CRIB    1040            74  270/ 12/ 14   N/A
BURNHAM HARBOR   NOT AVBL
CALUMET HARBOR   1030            71  220/  4/  9 1010.6F
BURNS HARBOR     1040            72  230/ 13/ 17 1012.2F
MICHIGAN CITY    1040            72  220/ 19/ 21   N/A
$$

ABBREVIATIONS USED IN REMARKS
   TC - TEMPERATURE IN CELSIUS
  WCI - WIND CHILL INDEX
   HX - HEAT INDEX
  VSB - VISIBILITY
$$




USA.gov is the U.S. government's official web portal to all federal, state and local government web resources and services.